カタログに戻る

DELTA 1 DEB

運用中SSO
NORAD 19360·DEBRIS·🇺🇸 United States

打ち上げ Nov 6, 1973 から Vandenberg Space Force Base

Loading…

次のパス (今後24時間)

TLE

最新Source: Space-Track

元期: Sep 14, 2026, 04:00 UTC

1 19360U 73086HE  26257.16678475  .00000922  00000-0  57608-2 0  9990
2 19360 101.8895 336.4981 0043877 308.5668  80.1667 12.57300501891013

AllMySatでDELTA 1 DEBをリアルタイム追跡

Download on the App Store